Location: Chv�lov
(48.5167°N, 17.1667°E)
Time: 18:42:27
(UTC+00:00)

Daily predictions for brighter satellites

Satellite Brightness Start Highest point End
(mag) Time Altitude Azimuth Time Altitude Azimuth Time Altitude Azimuth
Cosmos 2233 Rocket 4.0 16:53:03 10° S 16:59:09 70° E 17:05:22 10° NNE
STARLINK-22 4.0 16:56:47 10° WNW 16:59:55 37° N 17:03:02 10° ENE
Meteor 1-27 Rocket 4.0 16:55:50 10° NNW 17:01:25 79° W 17:07:05 10° S
STARLINK-41 4.0 16:58:19 10° WNW 17:01:25 37° N 17:04:31 10° ENE
STARLINK-1032 3.6 16:57:24 10° WSW 17:01:33 90° SE 17:05:43 10° ENE
STARLINK-1016 3.9 16:58:30 10° W 17:01:47 44° NNW 17:05:04 10° ENE
STARLINK-1008 3.9 17:00:09 10° W 17:03:26 44° NNW 17:06:44 10° ENE
Cosmos 921 Rocket 3.7 16:59:12 10° SSW 17:03:40 61° WNW 17:08:09 10° NNE
Cosmos 1470 Rocket 3.6 16:59:57 10° S 17:04:14 58° E 17:08:36 10° NNE
STARLINK-24 4.2 17:00:23 10° W 17:04:17 47° N 17:08:12 10° ENE
COSMOS 2487 2.6 17:01:37 10° NNW 17:04:59 50° ENE 17:08:21 10° SE
STARLINK-75 4.1 17:02:31 10° WNW 17:05:41 36° N 17:08:50 10° ENE
STARLINK-58 4.1 17:02:36 10° WNW 17:05:59 40° N 17:09:22 10° ENE
STARLINK-1011 3.7 17:02:21 10° WSW 17:06:30 86° NNW 17:10:40 10° ENE
STARLINK-1025 3.9 17:04:18 10° W 17:07:35 43° N 17:10:53 10° ENE
STARLINK-62 4.1 17:04:20 10° WNW 17:07:42 39° N 17:11:05 10° ENE
STARLINK-1035 3.8 17:03:32 10° WSW 17:07:49 81° NNW 17:12:05 10° ENE
STARLINK-43 3.3 17:04:30 10° WNW 17:08:13 71° NNE 17:11:54 10° ESE
Lacrosse 5 rocket 2.8 17:04:13 10° NW 17:08:13 30° N 17:12:18 10° ENE
STARLINK-1050 4.5 17:04:37 10° SSW 17:08:23 34° SE 17:12:09 10° ENE
NOSS 2-3 (E) 3.8 17:04:11 10° SW 17:08:32 85° SE 17:13:47 10° NE
STARLINK-1031 3.7 17:04:29 10° WSW 17:08:36 78° NNW 17:12:43 10° ENE
STARLINK-34 4.1 17:05:58 10° WNW 17:09:20 39° N 17:12:42 10° ENE
YAOGAN 6 3.9 17:06:09 10° S 17:09:29 43° W 17:12:51 10° NNW
Cosmos 1862 Rocket 3.7 17:05:19 10° N 17:09:41 83° W 17:14:02 10° S
STARLINK-1017 4.0 17:06:24 10° W 17:09:41 42° N 17:12:58 10° ENE
Envisat 4.4 17:05:08 10° S 17:09:58 44° W 17:14:51 10° NNW
Okean 1-7 3.7 17:06:13 10° N 17:10:09 33° ENE 17:14:06 10° SE
Okean 1 4.2 17:06:47 10° NNE 17:10:16 28° ENE 17:13:43 10° SE
STARLINK-1036 3.7 17:07:20 10° WSW 17:11:29 82° NNW 17:15:39 10° ENE
Lacrosse 5 3.1 17:08:09 10° S 17:12:12 24° SE 17:16:15 10° ENE
HJ-1C 4.3 17:10:29 10° SE 17:13:19 27° ENE 17:16:10 10° N
COSMO-SKYMED 1 2.6 17:08:56 10° NNE 17:13:20 89° WSW 17:17:40 10° SSW
STARLINK-1055 4.3 17:09:30 10° SSW 17:13:20 37° SE 17:17:05 10° ENE
STARLINK-81 4.3 17:11:07 10° W 17:15:00 46° N 17:18:54 10° ENE
USA 234 4.0 17:09:06 10° ENE 17:15:14 45° N 17:21:22 10° WNW
Gbstr 26 Del rocket 3.5 17:11:32 10° SW 17:15:17 42° SE 17:19:34 11° ENE
STARLINK-1048 4.0 17:12:45 10° W 17:16:02 41° N 17:19:17 10° ENE
STARLINK-1044 3.7 17:12:20 10° WSW 17:16:29 78° NNW 17:20:38 10° ENE
STARLINK-54 4.3 17:12:59 10° W 17:16:53 45° N 17:20:41 10° ENE
Cosmos 405 3.5 17:14:42 10° N 17:18:03 38° ENE 17:21:24 10° SE
STARLINK-1049 4.0 17:14:54 10° W 17:18:10 41° N 17:21:20 11° ENE
STARLINK-1022 4.2 17:14:25 10° SSW 17:18:16 40° SE 17:21:52 12° ENE
STARLINK-77 4.3 17:14:27 10° W 17:18:20 45° N 17:22:06 11° ENE
STARLINK-1027 3.9 17:14:14 10° WSW 17:18:29 71° NNW 17:22:43 10° ENE
Cosmos 2369 Rocket 2.7 17:13:03 10° SW 17:18:41 67° WNW 17:24:24 10° NNE
STARLINK-25 4.3 17:16:06 10° W 17:19:59 45° N 17:23:41 11° ENE
STARLINK-1051 4.0 17:17:04 10° W 17:20:21 40° N 17:23:25 11° ENE
STARLINK-71 4.3 17:18:00 10° W 17:21:53 44° N 17:25:28 12° ENE
STARLINK-1028 4.1 17:18:43 10° W 17:21:59 40° N 17:25:00 12° ENE
STARLINK-1042 4.1 17:19:20 10° SW 17:23:15 43° SE 17:26:40 13° ENE
STARLINK-79 4.3 17:19:27 10° W 17:23:19 45° N 17:26:52 12° ENE
NOSS 2-3 (D) 3.9 17:19:19 10° SW 17:23:42 80° NW 17:28:58 10° NE
Cosmos 1898 Rocket 3.6 17:18:34 10° NNW 17:23:42 57° ENE 17:28:48 10° SE
STARLINK-1021 4.1 17:20:54 10° W 17:24:11 40° N 17:27:07 12° ENE
Cosmos 44 Rocket 3.3 17:19:34 10° NNW 17:24:17 62° NE 17:29:03 10° SE
Cosmos 2242 Rocket 3.6 17:20:21 10° N 17:24:56 83° ENE 17:29:31 10° S
STARLINK-78 4.3 17:21:08 10° W 17:25:00 44° N 17:28:29 12° ENE
STARLINK-1037 3.8 17:22:13 10° WSW 17:26:22 71° NNW 17:30:09 12° ENE
STARLINK-1019 4.1 17:23:07 10° WNW 17:26:23 39° N 17:29:13 13° ENE
USA 229 DEB 4.4 17:20:04 10° WSW 17:26:31 52° NW 17:33:21 10° NE
USA 229 4.4 17:20:11 10° WSW 17:26:37 53° NW 17:33:27 10° NE
STARLINK-57 4.3 17:22:53 10° W 17:26:46 44° N 17:30:09 13° ENE
Cosmos 1763 Rocket 4.1 17:22:30 10° SSE 17:27:11 34° ESE 17:31:56 10° NE
Cosmos 1703 Rocket 3.7 17:22:51 10° N 17:27:16 57° ENE 17:31:41 10° SSE
STARLINK-1056 4.0 17:24:15 10° SW 17:28:12 46° SE 17:31:26 15° ENE
SJ 16-02 1.4 17:23:58 10° NNW 17:28:19 54° ENE 17:32:37 10° SE
STARLINK-49 4.3 17:24:27 10° W 17:28:19 44° N 17:31:39 13° ENE
STARLINK-1012 4.1 17:25:21 10° WNW 17:28:37 39° N 17:31:21 14° ENE
CENTAUR R/B 3.9 17:22:20 10° NW 17:29:01 33° NNE 17:35:26 13° E
Cosmos 1602 4.4 17:25:53 10° SSE 17:29:21 32° E 17:32:49 10° NNE
ARGOS 4.0 17:25:01 10° ESE 17:29:40 30° ENE 17:34:20 10° N
STARLINK-27 4.3 17:26:05 10° W 17:29:57 44° N 17:33:13 14° ENE
STARLINK-48 3.9 17:26:11 10° WNW 17:30:00 49° NNE 17:32:51 16° E
Meteor 1-25 Rocket 4.2 17:24:58 10° S 17:30:31 59° E 17:36:02 10° NNE
STARLINK-1059 3.8 17:27:18 10° WSW 17:31:26 68° NNW 17:35:01 14° ENE
STARLINK-74 4.3 17:27:46 10° WNW 17:31:39 44° N 17:34:50 14° ENE
STARLINK-1026 4.1 17:29:47 10° WNW 17:33:03 39° N 17:35:36 15° ENE
STARLINK-1054 3.9 17:29:09 10° SW 17:33:08 49° SE 17:36:12 16° ENE
STARLINK-39 4.3 17:29:26 10° WNW 17:33:17 43° N 17:36:24 15° ENE
NOSS 3-1 (A) 3.9 17:27:56 10° WSW 17:33:32 62° NW 17:40:08 10° NE
STARLINK-1023 4.1 17:30:39 10° WNW 17:33:46 37° N 17:36:06 15° ENE
USA 186 3.1 17:34:04 17° ENE 17:34:04 17° ENE 17:35:58 10° NNE
Resurs 01 Rocket 3.6 17:33:49 11° ENE 17:34:05 11° NE 17:35:29 10° NE
STARLINK-31 4.3 17:31:08 10° WNW 17:35:00 43° N 17:38:02 15° ENE
Cosmos 1939 Rocket 3.1 17:30:55 10° S 17:35:03 77° WSW 17:39:13 10° NNW
STARLINK-1013 4.1 17:32:02 10° WNW 17:35:18 38° N 17:37:46 16° ENE
STARLINK-61 4.2 17:32:02 10° WNW 17:35:46 42° N 17:38:30 17° ENE
STARLINK-1057 3.9 17:32:18 10° WSW 17:36:26 65° NNW 17:39:48 15° ENE
STARLINK-26 3.7 17:33:26 10° WNW 17:36:49 47° NNE 17:38:56 20° E
STARLINK-69 4.3 17:33:00 10° WNW 17:36:52 43° N 17:39:48 16° ENE
Cosmos 1869 Rocket 4.1 17:33:03 10° SSE 17:37:03 36° E 17:41:04 10° NNE
STARLINK-1009 4.1 17:34:16 10° WNW 17:37:32 38° N 17:39:54 16° ENE
CSL-04 Rocket 3.9 17:32:14 10° SSE 17:37:45 78° WSW 17:43:13 10° NNW
STARLINK-1062 3.8 17:34:04 10° SW 17:38:06 53° SE 17:40:59 18° ENE
STARLINK-21 4.3 17:34:29 10° WNW 17:38:20 43° N 17:41:14 16° ENE
STARLINK-1015 4.1 17:36:32 10° WNW 17:39:48 38° N 17:42:04 17° ENE
STARLINK-45 4.3 17:36:22 10° WNW 17:40:14 43° N 17:43:01 17° ENE
STARLINK-1034 3.9 17:37:17 10° W 17:41:24 62° NNW 17:44:34 16° ENE
STARLINK-70 4.3 17:37:56 10° WNW 17:41:48 43° N 17:44:31 18° ENE
CZ-2D R/B 3.8 17:38:54 10° S 17:42:46 64° W 17:46:39 10° NNW
STARLINK-1053 3.8 17:39:01 10° SW 17:43:04 57° SSE 17:45:46 20° ENE
STARLINK-76 4.3 17:39:28 10° WNW 17:43:19 43° N 17:45:59 18° ENE
ATLAS 3B R/B 3.9 17:38:25 10° NW 17:43:51 25° NNE 17:48:16 14° ENE
Cosmos 858 Rocket 4.5 17:39:11 10° NNW 17:44:24 64° ENE 17:49:33 10° SE
STARLINK-1014 4.1 17:41:32 10° WNW 17:44:53 39° N 17:47:04 19° NE
STARLINK-23 4.3 17:41:08 10° WNW 17:44:59 43° N 17:47:34 19° ENE
CZ-2C R/B 3.7 17:39:45 10° SE 17:45:04 39° ENE 17:50:14 10° N
Cosmos 1891 Rocket 4.5 17:40:08 10° S 17:46:15 66° E 17:52:34 10° NNE
STARLINK-1068 4.0 17:42:18 10° W 17:46:24 60° NNW 17:49:21 18° ENE
CZ-4 R/B 3.0 17:42:30 10° SSW 17:46:25 39° W 17:50:19 10° NNW
STARLINK-80 3.4 17:42:41 10° WNW 17:46:31 68° NNE 17:48:42 24° E
STARLINK-32 4.3 17:42:46 10° WNW 17:46:38 43° N 17:49:08 19° ENE
Cosmos 1570 Rocket 4.5 17:42:58 10° S 17:47:46 38° ESE 17:52:36 10° NE
STARLINK-1061 3.7 17:43:57 10° SW 17:48:01 61° SSE 17:50:32 22° ENE
STARLINK-40 4.3 17:44:27 10° WNW 17:48:18 43° N 17:50:45 20° ENE
STARLINK-44 4.3 17:46:06 10° WNW 17:49:58 43° N 17:52:20 20° ENE
Lacrosse 4 Rocket 4.3 17:48:38 10° NW 17:50:07 11° NNW 17:51:35 10° N
YAOGAN 1 3.7 17:46:24 10° S 17:50:34 46° W 17:54:47 10° NNW
STARLINK-37 4.3 17:47:54 10° WNW 17:51:46 43° N 17:54:02 21° ENE
STARLINK-1067 3.6 17:48:54 10° SW 17:53:00 65° SSE 17:55:19 24° ENE
STARLINK-36 4.3 17:49:25 10° WNW 17:53:16 43° N 17:55:30 22° ENE
Ariane Rocket 2.9 17:48:19 10° SSE 17:53:23 69° ENE 17:58:30 10° N
STARLINK-64 4.1 17:50:03 10° WNW 17:53:29 40° N 17:55:09 24° ENE
Cosmos 540 Rocket 4.2 17:49:15 10° SSE 17:53:36 28° E 17:57:58 10° NE
STARLINK-33 3.8 17:51:40 10° WNW 17:54:47 39° N 17:56:01 27° ENE
SJ-6B 3.4 17:53:43 26° ESE 17:54:59 33° ENE 17:58:27 10° N
Okean 3 4.1 17:51:15 10° N 17:55:08 34° ENE 17:56:53 24° ESE
STARLINK-68 4.3 17:51:19 10° WNW 17:55:10 43° N 17:57:17 23° ENE
Cosmos 489 Rocket 4.4 17:49:12 10° SSW 17:55:30 74° ESE 18:01:50 10° NNE
STARLINK-55 3.8 17:53:03 10° WNW 17:56:11 40° N 17:57:20 29° ENE
STARLINK-1060 4.1 17:52:18 10° W 17:56:23 55° NNW 17:58:55 22° ENE
STARLINK-63 4.3 17:52:52 10° WNW 17:56:43 43° N 17:58:46 23° ENE
STARLINK-66 3.8 17:53:57 10° WNW 17:57:05 40° N 17:58:12 29° ENE
FREGAT/IRIS 2.8 17:57:40 40° ENE 17:57:40 40° ENE 18:00:09 10° N
STARLINK-28 3.7 17:54:39 10° WNW 17:57:47 41° N 17:58:52 30° ENE
STARLINK-1058 3.6 17:53:51 10° SW 17:57:57 70° SSE 18:00:06 27° ENE
Cosmos 990 Rocket 4.1 17:52:57 10° NNW 17:58:07 78° WSW 18:03:15 10° SSE
STARLINK-35 4.3 17:54:25 10° WNW 17:58:16 43° N 18:00:16 24° ENE
STARLINK-42 3.8 17:55:32 10° WNW 17:58:36 39° N 17:59:38 29° NE
STARLINK-51 4.3 17:56:05 10° WNW 17:59:56 43° N 18:01:51 25° ENE
STARLINK-1029 4.1 17:57:41 10° WNW 18:00:39 35° N 18:01:47 26° NE
STARLINK-1030 4.1 17:57:20 10° W 18:01:24 54° NNW 18:03:43 24° NE
STARLINK-1007 4.1 17:58:16 10° WNW 18:01:25 36° N 18:02:38 26° NE
Cosmos 1943 Rocket 4.0 17:56:45 10° WSW 18:01:32 29° NW 18:06:21 10° NNE
STARLINK-30 4.3 17:57:45 10° WNW 18:01:36 43° N 18:03:27 26° ENE
Cosmos 2297 Rocket 2.8 17:57:25 10° NNW 18:02:39 36° NE 18:04:59 26° E
STARLINK-1043 3.5 17:58:48 10° SW 18:02:56 74° SSE 18:04:52 30° ENE
STARLINK-72 4.3 17:59:26 10° WNW 18:03:17 43° N 18:05:03 26° ENE
SJ-11-01 4.2 17:59:19 10° SSE 18:03:59 82° ENE 18:08:40 10° NNW
STARLINK-50 4.3 18:01:05 10° WNW 18:04:56 43° N 18:06:39 27° ENE
Nadezhda 4 Rocket 3.9 17:58:57 10° N 18:05:16 71° E 18:11:35 10° SSE
SL-08 RB Rocket 4.2 18:04:26 28° ESE 18:05:59 37° ENE 18:10:06 10° N
STARLINK-1020 4.2 18:02:20 10° W 18:06:23 52° NNW 18:08:29 26° NE
STARLINK-59 4.3 18:02:51 10° WNW 18:06:43 43° N 18:08:19 28° NE
STARLINK-1065 3.5 18:03:35 10° WSW 18:07:43 78° SSE 18:09:29 33° ENE
STARLINK-56 4.3 18:04:25 10° WNW 18:08:16 43° N 18:09:50 29° NE
IRS-1A Rocket 4.2 18:03:34 10° SSE 18:09:04 86° ENE 18:14:38 10° NNW
CZ-2C R/B 4.4 18:05:05 10° NNE 18:09:17 32° E 18:13:29 10° SSE
STARLINK-73 4.3 18:06:04 10° WNW 18:09:56 43° N 18:11:25 30° NE
STARLINK-1010 4.0 18:07:40 10° WNW 18:10:44 35° N 18:11:28 31° NNE
Cosmos 2026 Rocket 4.4 18:05:19 10° N 18:11:04 38° ENE 18:13:44 26° ESE
STARLINK-1052 4.2 18:07:20 10° W 18:11:23 51° NNW 18:13:16 28° NE
STARLINK-38 4.3 18:07:45 10° WNW 18:11:38 43° N 18:13:02 31° NE
Cosmos 1464 Rocket 4.1 18:06:15 10° S 18:12:38 85° W 18:19:04 10° N
STARLINK-1063 3.5 18:08:42 10° WSW 18:12:51 83° SSE 18:14:25 37° ENE
Cosmos 1937 Rocket 3.6 18:07:37 10° NNW 18:12:54 80° WSW 18:18:04 10° SSE
STARLINK-65 4.3 18:09:24 10° WNW 18:13:16 43° N 18:14:36 32° NE
STARLINK-1047 4.2 18:09:40 10° W 18:13:44 50° NNW 18:15:33 29° NE
STARLINK-53 4.2 18:11:09 10° WNW 18:15:02 44° N 18:16:17 33° NE
ADEOS Rocket 3.8 18:07:17 10° NNE 18:15:06 77° WNW 18:22:40 10° SSW
Cosmos 1515 3.5 18:11:32 10° N 18:15:20 72° E 18:17:27 25° SSE
MONITOR-E 4.1 18:16:07 57° N 18:16:07 57° N 18:18:22 10° N
Genesis I 3.0 18:12:15 10° NW 18:16:07 71° NE 18:17:06 47° ESE
Meteor 1-5 Rocket 4.5 18:11:48 10° SSE 18:16:56 42° E 18:22:16 10° NNE
STARLINK-1064 3.5 18:13:41 10° WSW 18:17:50 88° SSE 18:19:12 41° ENE
USA 238 DEB 3.9 18:10:49 10° NW 18:17:54 62° NE 18:21:52 29° ESE
USA 238 3.9 18:10:55 10° NW 18:17:59 61° NE 18:21:56 29° ESE
STARLINK-1033 4.3 18:17:21 10° W 18:21:23 48° N 18:22:50 33° NE
Cosmos 2227 Rocket 2.6 18:16:28 10° NNW 18:21:53 43° NE 18:23:25 36° E
STARLINK-1041 3.5 18:18:40 10° WSW 18:22:48 88° NNW 18:23:59 46° ENE
SL-24 DEB 4.1 18:19:55 10° SSE 18:24:35 76° E 18:29:15 10° N
Cosmos 2221 Rocket 3.5 18:21:10 10° N 18:25:43 78° E 18:28:33 22° SSE
STARLINK-1038 3.5 18:23:37 10° WSW 18:27:46 84° NNW 18:28:45 51° ENE
Cosmos 2082 4.5 18:22:40 10° NNW 18:27:50 33° NE 18:28:37 32° ENE
Cosmos 1674 Rocket 4.4 18:24:41 10° N 18:28:02 34° NE 18:28:02 34° NE
H-2A R/B 2.2 18:25:06 10° SSE 18:30:31 84° WSW 18:36:02 10° NNW
STARLINK-1024 4.3 18:27:24 10° W 18:31:24 46° N 18:32:25 38° NNE
STARLINK-1046 3.6 18:28:37 10° WSW 18:32:46 80° NNW 18:33:33 57° NE
STARLINK 1040 4.3 18:30:48 10° WNW 18:32:39 29° NNW 18:32:39 29° NNW
Cosmos 2034 Rocket 4.0 18:29:02 10° SSW 18:35:11 80° W 18:41:23 10° N
STARLINK-22 3.9 18:33:30 10° WNW 18:36:16 42° NNW 18:36:16 42° NNW
Cosmos 372 Rocket 3.9 18:32:12 10° NNW 18:37:29 75° ENE 18:39:10 44° SE
STARLINK-1039 3.6 18:33:39 10° WSW 18:37:47 76° NNW 18:38:22 62° NE
STARLINK-41 3.9 18:35:00 10° WNW 18:37:41 43° NNW 18:37:41 43° NNW
STARLINK-1016 4.1 18:35:49 10° WNW 18:38:43 38° N 18:38:43 38° N
STARLINK-1008 4.2 18:37:29 10° WNW 18:40:20 38° NNW 18:40:20 38° NNW
STARLINK-1032 4.3 18:37:25 10° W 18:41:25 45° N 18:41:59 42° NNE
STARLINK-75 4.0 18:39:20 10° WNW 18:41:58 44° NNW 18:41:58 44° NNW
STARLINK-1045 3.6 18:38:37 10° WSW 18:42:45 72° NNW 18:43:08 66° NNE
STARLINK-58 4.0 18:40:19 10° WNW 18:43:17 45° NNW 18:43:17 45° NNW
STARLINK-24 4.0 18:39:58 10° WNW 18:43:52 49° N 18:43:52 49° N
Resurs 1-3 3.8 18:44:37 55° NE 18:44:37 55° NE 18:48:27 10° N
STARLINK-1025 4.3 18:41:39 10° WNW 18:44:21 37° NNW 18:44:21 37° NNW
STARLINK-62 4.1 18:42:02 10° WNW 18:44:55 44° NNW 18:44:55 44° NNW
STARLINK-1011 4.3 18:42:24 10° WNW 18:46:24 45° N 18:46:45 43° N
Cosmos 1428 Rocket 4.4 18:40:52 10° N 18:46:56 62° ENE 18:48:34 46° SE
STARLINK-1017 4.4 18:43:45 10° WNW 18:46:21 36° NNW 18:46:21 36° NNW
STARLINK-34 4.1 18:43:38 10° WNW 18:46:29 44° NNW 18:46:29 44° NNW
STARLINK-1050 3.7 18:43:40 10° WSW 18:47:47 68° NNW 18:47:59 66° N
Lacrosse 5 rocket 1.6 18:43:32 10° NW 18:48:06 63° NNE 18:48:11 63° NE
STARLINK-1035 4.3 18:44:05 10° WNW 18:48:11 45° N 18:48:33 44° NNE
MetOp-A 4.0 18:46:49 49° SE 18:48:12 72° ENE 18:53:34 10° N
STARLINK-1031 4.3 18:44:29 10° WNW 18:48:26 44° N 18:48:37 43° N
Cosmos 2219 3.2 18:44:27 10° NNW 18:50:15 87° WSW 18:52:14 43° SSE
STARLINK-1036 4.3 18:47:25 10° WNW 18:51:24 44° N 18:51:32 44° N
STARLINK-1055 3.8 18:48:39 10° WSW 18:52:45 65° NNW 18:52:45 65° NNW
Cosmos 1092 Rocket 4.0 18:46:45 10° N 18:53:08 83° W 18:58:47 13° S
STARLINK-81 4.2 18:50:41 10° WNW 18:54:10 47° NNW 18:54:10 47° NNW
Lacrosse 5 1.8 18:49:37 10° WSW 18:54:43 82° NW 18:55:38 60° NE
STARLINK-1044 4.4 18:52:26 10° WNW 18:56:19 44° N 18:56:19 44° N
STARLINK-54 4.3 18:52:32 10° WNW 18:55:56 48° NNW 18:55:56 48° NNW
Meteor 2-4 Rocket 4.3 18:51:19 10° NNW 18:57:10 61° W 19:03:00 10° S
USA 234 3.8 18:55:21 35° ENE 18:57:33 47° NNE 19:03:44 10° WNW
STARLINK-1022 4.0 18:53:39 10° W 18:57:32 61° NW 18:57:32 61° NW
STARLINK-77 4.3 18:54:00 10° WNW 18:57:20 46° NNW 18:57:20 46° NNW
Cosmos 1634 Rocket 3.9 18:52:35 10° S 18:58:52 73° E 19:05:13 10° NNE
STARLINK-1027 4.5 18:54:49 10° WNW 18:58:47 44° N 18:58:47 44° N
STARLINK-25 4.4 18:55:39 10° WNW 18:58:55 46° NNW 18:58:55 46° NNW
GP-B 4.1 19:01:33 36° N 19:01:33 36° N 19:04:16 10° N
Cosmos 2263 Rocket 4.0 18:56:25 10° N 18:59:45 18° NNE 18:59:45 18° NNE
CZ-2C R/B 4.3 18:55:24 10° NNE 18:57:07 20° NNE 18:57:07 20° NNE
STARLINK-71 4.4 18:57:31 10° WNW 19:00:42 46° NNW 19:00:42 46° NNW
Gbstr 26 Del rocket 3.3 18:57:44 10° W 19:02:01 69° NNW 19:02:07 69° N
Cosmos 1814 Rocket 4.0 18:57:05 10° SSW 19:02:13 78° WNW 19:07:24 10° NNE
STARLINK-1042 4.2 18:58:40 10° W 19:02:20 56° NW 19:02:20 56° NW
STARLINK-79 4.5 18:58:58 10° WNW 19:02:07 44° NNW 19:02:07 44° NNW
USA 186 4.4 19:05:54 17° WNW 19:05:54 17° WNW 19:07:07 10° NW
Cosmos 2195 Rocket 4.5 18:58:53 10° N 19:05:02 80° W 19:08:27 28° S
Meteor 2-13 Rocket 4.3 18:59:45 10° N 19:05:45 63° ENE 19:05:45 63° ENE
SJ 16-02 4.1 19:03:31 10° NW 19:06:28 18° W 19:09:23 10° SW
STARLINK-1056 4.4 19:03:40 10° W 19:07:07 50° NW 19:07:07 50° NW
NOSS 3-2 (A) 4.0 19:00:39 10° NW 19:08:07 85° SW 19:10:56 46° SSE
Cosmos 841 Rocket 3.8 19:03:12 10° SW 19:08:18 64° WNW 19:13:30 10° NNE
ARGOS 4.0 19:04:37 11° S 19:09:43 48° W 19:14:59 10° NNW
Resurs 01 Rocket 2.6 19:11:23 40° N 19:11:23 40° N 19:14:16 10° N
Cosmos 2298 Rocket 4.4 19:05:36 10° NNW 19:10:53 63° WSW 19:12:02 50° SSW
NOSS 3-2 (C) 3.9 19:04:34 10° NW 19:11:59 77° NE 19:13:51 56° ESE
SPOT 3 Rocket 4.0 19:13:10 37° SSW 19:15:00 57° WSW 19:20:10 10° NNW
Meteor 1-11 Rocket 3.6 19:10:06 10° SSW 19:15:41 86° W 19:21:15 10° N
CENTAUR R/B 3.1 19:13:07 10° NW 19:21:02 74° NE 19:22:39 60° ESE
Cosmos 1125 Rocket 3.9 19:27:34 10° NNW 19:32:02 61° NW 19:32:02 61° NW
Cosmos 540 Rocket 4.4 19:30:05 10° SW 19:34:59 44° WNW 19:39:57 10° NNE
ATLAS 3B R/B 2.9 19:29:15 10° NW 19:35:31 58° NNE 19:35:31 58° NNE
Cosmos 2297 Rocket 3.0 19:41:27 10° NW 19:46:50 45° WSW 19:46:50 45° WSW
Terra 4.5 19:57:30 11° N 19:57:30 11° N 19:57:46 10° N
ATLAS 2AS CENTAUR R/B 4.4 19:51:14 10° SSW 19:53:45 23° SSW 19:53:45 23° SSW
Cosmos 2227 Rocket 3.5 20:00:44 10° NW 20:05:17 35° W 20:05:17 35° W
Lacrosse 5 rocket 4.5 20:23:03 10° WNW 20:23:51 14° WNW 20:23:51 14° WNW
Lacrosse 5 4.4 20:33:34 10° W 20:34:52 17° WNW 20:34:52 17° WNW
USA 234 4.2 20:42:41 42° NW 20:42:41 42° NW 20:46:47 10° NW
Cosmos 2263 Rocket 4.3 20:39:32 10° NNW 20:41:27 22° NNW 20:41:27 22° NNW
CENTAUR R/B 4.3 21:04:15 10° NW 21:09:51 34° W 21:09:51 34° W
